HAZ2911 ZSHC-ZYTL

Flight info

Callsign HAZ2911
Flight time 1h 40m
Altitude 33100
Route SUPAR B221 XDX W174 FD W172 IGDEG W173 NIXEP
Aircraft A346/H-SDE2E3FGHIJ3J4J5M1RWXY/LB1D1

Departure

Time 2026-05-05 03:11
Airport Hangzhou Xiaoshan International Airport (ZSHC)

Arrival

Time 2026-05-05 04:52
Airport Dalian Zhoushuizi International Airport (ZYTL)
Time Latitude Longitude Altitude Speed Heading
2026-05-05 02:46 30.24128 120.42631 40 ft 0 kts 144°
2026-05-05 02:48 30.24128 120.42632 40 ft 0 kts 144°
2026-05-05 02:59 30.24136 120.42625 37 ft 4 kts 142°
2026-05-05 02:59 30.24154 120.42609 36 ft 4 kts 142°
2026-05-05 02:59 30.24172 120.42589 39 ft 4 kts 126°
2026-05-05 03:00 30.24183 120.42564 36 ft 4 kts 103°
2026-05-05 03:00 30.24184 120.42537 40 ft 4 kts 78°
2026-05-05 03:00 30.24176 120.42509 37 ft 4 kts 63°
2026-05-05 03:00 30.24164 120.42484 38 ft 3 kts 63°
2026-05-05 03:01 30.24152 120.42456 37 ft 4 kts 63°
2026-05-05 03:01 30.24140 120.42428 38 ft 4 kts 63°
2026-05-05 03:01 30.24130 120.42407 38 ft 0 kts 63°
2026-05-05 03:06 30.24136 120.42421 38 ft 4 kts 63°
2026-05-05 03:06 30.24175 120.42466 39 ft 11 kts 16°
2026-05-05 03:06 30.24255 120.42440 40 ft 13 kts 334°
2026-05-05 03:06 30.24341 120.42454 40 ft 16 kts 47°
2026-05-05 03:07 30.24401 120.42578 40 ft 19 kts 63°
2026-05-05 03:07 30.24464 120.42722 40 ft 21 kts 63°
2026-05-05 03:07 30.24534 120.42880 40 ft 23 kts 63°
2026-05-05 03:07 30.24610 120.43050 40 ft 24 kts 62°
2026-05-05 03:08 30.24691 120.43229 40 ft 26 kts 62°
2026-05-05 03:08 30.24776 120.43418 41 ft 27 kts 62°
2026-05-05 03:08 30.24863 120.43615 40 ft 28 kts 63°
2026-05-05 03:08 30.24950 120.43820 40 ft 26 kts 63°
2026-05-05 03:09 30.25016 120.43967 40 ft 17 kts 63°
2026-05-05 03:09 30.25080 120.44029 41 ft 0 kts 355°
2026-05-05 03:09 30.25087 120.44028 41 ft 5 kts 349°
2026-05-05 03:09 30.25145 120.44000 41 ft 12 kts 333°
2026-05-05 03:10 30.25189 120.43925 41 ft 13 kts 258°
2026-05-05 03:10 30.25145 120.43822 39 ft 18 kts 243°
2026-05-05 03:10 30.24994 120.43481 40 ft 79 kts 243°
2026-05-05 03:10 30.24660 120.42726 38 ft 133 kts 243°
2026-05-05 03:11 30.24165 120.41607 49 ft 176 kts 242°
2026-05-05 03:11 30.23585 120.40290 464 ft 186 kts 240°
2026-05-05 03:11 30.22942 120.38933 968 ft 191 kts 239°
2026-05-05 03:11 30.22335 120.37581 1527 ft 192 kts 241°
2026-05-05 03:12 30.21750 120.36218 2183 ft 186 kts 240°
2026-05-05 03:12 30.21171 120.34882 2773 ft 185 kts 240°
2026-05-05 03:12 30.20533 120.33443 3340 ft 189 kts 240°
2026-05-05 03:12 30.19892 120.32004 3740 ft 203 kts 240°
2026-05-05 03:13 30.19218 120.30496 4036 ft 220 kts 240°
2026-05-05 03:13 30.18489 120.28861 4359 ft 238 kts 240°
2026-05-05 03:13 30.17692 120.27084 4737 ft 258 kts 240°
2026-05-05 03:13 30.16844 120.25181 5242 ft 272 kts 240°
2026-05-05 03:14 30.15965 120.23214 6002 ft 276 kts 239°
2026-05-05 03:14 30.14766 120.21510 6810 ft 275 kts 213°
2026-05-05 03:14 30.13030 120.20646 7600 ft 274 kts 187°
2026-05-05 03:14 30.11145 120.20788 8371 ft 275 kts 161°
2026-05-05 03:15 30.09395 120.21721 9137 ft 280 kts 152°
2026-05-05 03:15 30.07643 120.22790 9744 ft 289 kts 153°
2026-05-05 03:15 30.05855 120.23869 10474 ft 292 kts 154°
2026-05-05 03:15 30.04034 120.24948 11195 ft 296 kts 154°
2026-05-05 03:16 30.02368 120.26378 11801 ft 305 kts 130°
2026-05-05 03:16 30.01378 120.28544 12482 ft 310 kts 104°
2026-05-05 03:16 30.01277 120.31054 12986 ft 322 kts 78°
2026-05-05 03:16 30.02115 120.33503 13337 ft 336 kts 61°
2026-05-05 03:17 30.03266 120.35931 13692 ft 353 kts 60°
2026-05-05 03:17 30.04457 120.38448 13989 ft 370 kts 60°
2026-05-05 03:17 30.05694 120.41130 14282 ft 387 kts 61°
2026-05-05 03:17 30.06981 120.43975 14552 ft 403 kts 62°
2026-05-05 03:18 30.08296 120.46920 14950 ft 414 kts 62°
2026-05-05 03:18 30.09629 120.49919 15597 ft 418 kts 62°
2026-05-05 03:18 30.10953 120.52932 16258 ft 423 kts 64°
2026-05-05 03:18 30.11794 120.56216 16778 ft 429 kts 84°
2026-05-05 03:19 30.10607 120.62898 18105 ft 431 kts 115°
2026-05-05 03:19 30.09393 120.66128 18667 ft 436 kts 116°
2026-05-05 03:19 30.08179 120.69369 19163 ft 441 kts 115°
2026-05-05 03:20 30.06981 120.72650 19727 ft 446 kts 115°
2026-05-05 03:20 30.05791 120.75980 20282 ft 449 kts 115°
2026-05-05 03:20 30.04602 120.79337 20829 ft 453 kts 114°
2026-05-05 03:20 30.03695 120.82856 21281 ft 463 kts 99°
2026-05-05 03:21 30.03794 120.86594 21772 ft 470 kts 79°
2026-05-05 03:21 30.04933 120.90117 22305 ft 472 kts 59°
2026-05-05 03:21 30.06833 120.93223 22879 ft 474 kts 51°
2026-05-05 03:21 30.08881 120.96229 23369 ft 478 kts 50°
2026-05-05 03:22 30.10934 120.99281 23772 ft 484 kts 51°
2026-05-05 03:22 30.12986 121.02396 24112 ft 490 kts 51°
2026-05-05 03:22 30.15044 121.05567 24494 ft 495 kts 52°
2026-05-05 03:22 30.17129 121.08802 24856 ft 500 kts 52°
2026-05-05 03:23 30.19212 121.12049 25212 ft 505 kts 52°
2026-05-05 03:23 30.21318 121.15334 25590 ft 510 kts 52°
2026-05-05 03:23 30.23439 121.18643 25971 ft 514 kts 52°
2026-05-05 03:23 30.25572 121.22008 26338 ft 519 kts 53°
2026-05-05 03:24 30.27643 121.25536 26681 ft 525 kts 55°
2026-05-05 03:24 30.29653 121.29081 27017 ft 530 kts 55°
2026-05-05 03:24 30.31673 121.32683 27444 ft 532 kts 56°
2026-05-05 03:24 30.33661 121.36230 27935 ft 534 kts 55°
2026-05-05 03:25 30.35034 121.38670 28264 ft 535 kts 55°
2026-05-05 03:25 30.37846 121.43628 28933 ft 537 kts 54°
2026-05-05 03:25 30.39908 121.47240 29566 ft 535 kts 54°
2026-05-05 03:25 30.41284 121.49651 30028 ft 533 kts 54°
2026-05-05 03:26 30.43334 121.53246 30489 ft 534 kts 54°
2026-05-05 03:26 30.46058 121.58031 30841 ft 540 kts 54°
2026-05-05 03:26 30.47459 121.60495 31025 ft 543 kts 54°
2026-05-05 03:26 30.50218 121.65362 31567 ft 544 kts 54°
2026-05-05 03:27 30.51623 121.67841 31859 ft 544 kts 54°
2026-05-05 03:27 30.53702 121.71516 32286 ft 546 kts 54°
2026-05-05 03:27 30.55785 121.75201 32729 ft 545 kts 54°
2026-05-05 03:27 30.58543 121.80083 33145 ft 546 kts 54°
2026-05-05 03:28 30.62070 121.86335 33211 ft 553 kts 54°
2026-05-05 03:28 30.66284 121.93822 33209 ft 554 kts 54°
2026-05-05 03:29 30.70496 122.01322 33244 ft 553 kts 55°
2026-05-05 03:29 30.74684 122.08754 33199 ft 548 kts 52°
2026-05-05 03:30 30.79725 122.15270 33214 ft 543 kts 36°
2026-05-05 03:30 30.85968 122.20013 33218 ft 530 kts 18°
2026-05-05 03:31 30.92812 122.22793 33227 ft 515 kts
2026-05-05 03:31 30.99743 122.24959 33211 ft 519 kts 10°
2026-05-05 03:32 31.06589 122.27814 33212 ft 523 kts 14°
2026-05-05 03:32 31.13374 122.30858 33234 ft 520 kts 14°
2026-05-05 03:33 31.20119 122.33880 33218 ft 519 kts 14°
2026-05-05 03:33 31.26875 122.36893 33204 ft 521 kts 14°
2026-05-05 03:34 31.33655 122.39908 33232 ft 520 kts 14°
2026-05-05 03:34 31.40512 122.42234 33218 ft 507 kts
2026-05-05 03:35 31.47424 122.42548 33219 ft 489 kts 346°
2026-05-05 03:35 31.53925 122.40992 33253 ft 472 kts 333°
2026-05-05 03:36 31.60001 122.38247 33216 ft 469 kts 330°
2026-05-05 03:36 31.66114 122.35392 33211 ft 474 kts 330°
2026-05-05 03:37 31.72251 122.32575 33215 ft 474 kts 331°
2026-05-05 03:37 31.78352 122.29650 33212 ft 472 kts 329°
2026-05-05 03:38 31.84401 122.26636 33215 ft 473 kts 332°
2026-05-05 03:38 31.90549 122.23843 33207 ft 474 kts 332°
2026-05-05 03:39 31.96702 122.21071 33202 ft 474 kts 332°
2026-05-05 03:39 32.02855 122.18290 33200 ft 474 kts 332°
2026-05-05 03:40 32.09004 122.15504 33196 ft 473 kts 332°
2026-05-05 03:40 32.15278 122.12656 33202 ft 473 kts 332°
2026-05-05 03:41 32.21429 122.09859 33198 ft 473 kts 332°
2026-05-05 03:41 32.27531 122.07080 33207 ft 473 kts 332°
2026-05-05 03:42 32.33674 122.04276 33211 ft 473 kts 333°
2026-05-05 03:42 32.39833 122.01464 33183 ft 472 kts 333°
2026-05-05 03:43 32.45955 121.98671 33189 ft 472 kts 333°
2026-05-05 03:43 32.52085 121.95866 33182 ft 472 kts 333°
2026-05-05 03:44 32.58309 121.93012 33181 ft 472 kts 333°
2026-05-05 03:44 32.64435 121.90193 33188 ft 472 kts 333°
2026-05-05 03:45 32.70547 121.87384 33186 ft 471 kts 333°
2026-05-05 03:45 32.76667 121.84566 33179 ft 471 kts 333°
2026-05-05 03:46 32.82789 121.81743 33178 ft 471 kts 333°
2026-05-05 03:46 32.88894 121.78915 33188 ft 470 kts 334°
2026-05-05 03:47 32.95007 121.76087 33178 ft 469 kts 334°
2026-05-05 03:47 33.01094 121.73271 33174 ft 469 kts 334°
2026-05-05 03:48 33.07185 121.70446 33170 ft 469 kts 334°
2026-05-05 03:48 33.13272 121.67617 33190 ft 469 kts 334°
2026-05-05 03:49 33.19346 121.64789 33176 ft 469 kts 334°
2026-05-05 03:49 33.25424 121.61958 33167 ft 468 kts 334°
2026-05-05 03:50 33.31373 121.58951 33165 ft 467 kts 332°
2026-05-05 03:50 33.37341 121.55849 33169 ft 467 kts 332°
2026-05-05 03:51 33.43310 121.52760 33170 ft 467 kts 333°
2026-05-05 03:51 33.49270 121.49684 33161 ft 466 kts 333°
2026-05-05 03:52 33.55227 121.46613 33160 ft 466 kts 333°
2026-05-05 03:52 33.61187 121.43534 33157 ft 466 kts 333°
2026-05-05 03:53 33.67141 121.40452 33165 ft 466 kts 333°
2026-05-05 03:53 33.73175 121.37556 33153 ft 467 kts 335°
2026-05-05 03:54 33.79234 121.34723 33155 ft 467 kts 335°
2026-05-05 03:54 33.85281 121.31877 33152 ft 467 kts 335°
2026-05-05 03:55 33.91334 121.29012 33158 ft 467 kts 335°
2026-05-05 03:55 33.97376 121.26143 33148 ft 466 kts 335°
2026-05-05 03:56 34.03405 121.23275 33150 ft 466 kts 335°
2026-05-05 03:56 34.09442 121.20401 33151 ft 466 kts 335°
2026-05-05 03:57 34.15479 121.17522 33136 ft 466 kts 335°
2026-05-05 03:57 34.21506 121.14641 33142 ft 466 kts 335°
2026-05-05 03:58 34.27535 121.11758 33138 ft 466 kts 335°
2026-05-05 03:58 34.33563 121.08869 33136 ft 466 kts 335°
2026-05-05 03:59 34.39597 121.05973 33128 ft 466 kts 335°
2026-05-05 03:59 34.45621 121.03076 33136 ft 466 kts 335°
2026-05-05 04:00 34.51640 121.00178 33130 ft 466 kts 335°
2026-05-05 04:00 34.57685 120.97264 33130 ft 466 kts 335°
2026-05-05 04:01 34.63677 120.94368 33127 ft 465 kts 335°
2026-05-05 04:01 34.69701 120.91455 33125 ft 465 kts 335°
2026-05-05 04:02 34.75707 120.88546 33125 ft 465 kts 335°
2026-05-05 04:02 34.81717 120.85630 33124 ft 465 kts 335°
2026-05-05 04:03 34.87737 120.82705 33121 ft 465 kts 335°
2026-05-05 04:03 34.93745 120.79780 33121 ft 465 kts 335°
2026-05-05 04:04 34.99746 120.76854 33123 ft 465 kts 335°
2026-05-05 04:04 35.05758 120.73920 33122 ft 465 kts 335°
2026-05-05 04:05 35.11768 120.70982 33116 ft 465 kts 335°
2026-05-05 04:05 35.17775 120.68046 33118 ft 465 kts 336°
2026-05-05 04:06 35.23801 120.65121 33121 ft 466 kts 336°
2026-05-05 04:06 35.29991 120.62118 33105 ft 466 kts 336°
2026-05-05 04:07 35.36015 120.59188 33119 ft 466 kts 336°
2026-05-05 04:07 35.42048 120.56261 33103 ft 466 kts 336°
2026-05-05 04:08 35.48070 120.53351 33111 ft 466 kts 336°
2026-05-05 04:08 35.54103 120.50412 33102 ft 466 kts 336°
2026-05-05 04:09 35.60133 120.47472 33114 ft 466 kts 336°
2026-05-05 04:09 35.66162 120.44527 33105 ft 466 kts 336°
2026-05-05 04:10 35.72179 120.41582 33114 ft 466 kts 336°
2026-05-05 04:10 35.77195 120.39123 33106 ft 466 kts 337°
2026-05-05 04:11 35.84190 120.35696 33110 ft 465 kts 337°
2026-05-05 04:11 35.90246 120.32852 33105 ft 466 kts 341°
2026-05-05 04:12 35.96590 120.31118 33104 ft 467 kts 351°
2026-05-05 04:12 36.02018 120.30757 33103 ft 467 kts
2026-05-05 04:13 36.08548 120.31664 33100 ft 468 kts
2026-05-05 04:13 36.14931 120.33324 33094 ft 469 kts 10°
2026-05-05 04:14 36.21257 120.35017 33081 ft 461 kts 10°
2026-05-05 04:14 36.27546 120.36671 33074 ft 463 kts 12°
2026-05-05 04:15 36.33760 120.38843 33081 ft 463 kts 15°
2026-05-05 04:15 36.39924 120.41219 33083 ft 465 kts 16°
2026-05-05 04:16 36.46104 120.43622 33082 ft 465 kts 16°
2026-05-05 04:16 36.52286 120.46016 33075 ft 465 kts 15°
2026-05-05 04:17 36.58452 120.48402 33080 ft 462 kts 17°
2026-05-05 04:17 36.64494 120.50949 33071 ft 461 kts 18°
2026-05-05 04:18 36.70577 120.53560 33072 ft 462 kts 18°
2026-05-05 04:18 36.76695 120.56177 33071 ft 461 kts 18°
2026-05-05 04:19 36.82741 120.58761 33071 ft 458 kts 17°
2026-05-05 04:19 36.88777 120.61318 33067 ft 459 kts 17°
2026-05-05 04:20 36.95008 120.63388 33071 ft 458 kts 11°
2026-05-05 04:20 37.01323 120.64721 33076 ft 461 kts
2026-05-05 04:21 37.07667 120.65891 33071 ft 459 kts
2026-05-05 04:21 37.13969 120.67056 33064 ft 455 kts
2026-05-05 04:22 37.20232 120.68217 33052 ft 457 kts
2026-05-05 04:22 37.26516 120.69397 33060 ft 455 kts
2026-05-05 04:23 37.32731 120.70566 33046 ft 451 kts
2026-05-05 04:23 37.38903 120.71724 33037 ft 448 kts
2026-05-05 04:24 37.45095 120.72893 33038 ft 448 kts
2026-05-05 04:25 37.54433 120.74656 33042 ft 451 kts
2026-05-05 04:25 37.60605 120.75690 33027 ft 445 kts
2026-05-05 04:26 37.66841 120.76440 33023 ft 455 kts
2026-05-05 04:26 37.73130 120.77179 33025 ft 452 kts
2026-05-05 04:27 37.79422 120.77927 33013 ft 455 kts
2026-05-05 04:27 37.85677 120.78679 32454 ft 450 kts
2026-05-05 04:27 37.88835 120.79061 31277 ft 461 kts
2026-05-05 04:28 37.92060 120.79450 30267 ft 470 kts
2026-05-05 04:28 37.95323 120.79843 29417 ft 472 kts
2026-05-05 04:28 37.98586 120.80454 28469 ft 474 kts 12°
2026-05-05 04:28 38.01745 120.81683 27694 ft 474 kts 21°
2026-05-05 04:29 38.04701 120.83476 27193 ft 469 kts 28°
2026-05-05 04:29 38.07512 120.85541 26702 ft 464 kts 30°
2026-05-05 04:29 38.10293 120.87662 26219 ft 458 kts 30°
2026-05-05 04:29 38.13023 120.89750 25600 ft 456 kts 30°
2026-05-05 04:30 38.15745 120.91820 24979 ft 455 kts 30°
2026-05-05 04:30 38.18489 120.93896 24399 ft 453 kts 30°
2026-05-05 04:30 38.21191 120.95936 23861 ft 451 kts 29°
2026-05-05 04:30 38.23767 120.98196 23237 ft 451 kts 41°
2026-05-05 04:31 38.25810 121.01228 22580 ft 452 kts 56°
2026-05-05 04:31 38.27250 121.04775 22002 ft 449 kts 65°
2026-05-05 04:31 38.28491 121.08417 21438 ft 447 kts 66°
2026-05-05 04:31 38.29710 121.12063 20785 ft 446 kts 66°
2026-05-05 04:32 38.30935 121.15690 20244 ft 443 kts 66°
2026-05-05 04:32 38.32157 121.19272 19756 ft 439 kts 66°
2026-05-05 04:32 38.33383 121.22837 19169 ft 438 kts 66°
2026-05-05 04:32 38.34607 121.26382 18662 ft 435 kts 67°
2026-05-05 04:33 38.35821 121.29892 18192 ft 431 kts 67°
2026-05-05 04:33 38.37031 121.33387 17571 ft 430 kts 66°
2026-05-05 04:33 38.38215 121.36824 16997 ft 428 kts 67°
2026-05-05 04:33 38.39408 121.40279 16520 ft 423 kts 67°
2026-05-05 04:34 38.40629 121.43668 16118 ft 417 kts 62°
2026-05-05 04:34 38.42473 121.46478 15683 ft 412 kts 38°
2026-05-05 04:34 38.44981 121.48134 15283 ft 405 kts 15°
2026-05-05 04:34 38.47717 121.48813 14939 ft 398 kts
2026-05-05 04:35 38.50420 121.49430 14600 ft 391 kts 11°
2026-05-05 04:35 38.53049 121.50202 14294 ft 385 kts 13°
2026-05-05 04:35 38.55633 121.51012 13955 ft 380 kts 11°
2026-05-05 04:35 38.58223 121.51537 13661 ft 373 kts
2026-05-05 04:36 38.60778 121.51926 13340 ft 367 kts
2026-05-05 04:36 38.63295 121.52293 13041 ft 360 kts
2026-05-05 04:36 38.65788 121.52650 12727 ft 354 kts
2026-05-05 04:36 38.68224 121.53008 12422 ft 348 kts
2026-05-05 04:37 38.70611 121.53366 12129 ft 342 kts
2026-05-05 04:37 38.72954 121.53718 11746 ft 336 kts
2026-05-05 04:37 38.75236 121.54061 11329 ft 323 kts
2026-05-05 04:37 38.77420 121.54391 10923 ft 311 kts
2026-05-05 04:38 38.79528 121.54709 10532 ft 299 kts
2026-05-05 04:38 38.81576 121.55009 10084 ft 292 kts
2026-05-05 04:38 38.83581 121.55338 9744 ft 288 kts
2026-05-05 04:38 38.85426 121.56403 9751 ft 297 kts 38°
2026-05-05 04:39 38.86686 121.58517 9775 ft 303 kts 68°
2026-05-05 04:39 38.87017 121.61178 9799 ft 307 kts 94°
2026-05-05 04:39 38.86780 121.63950 9831 ft 310 kts 97°
2026-05-05 04:39 38.86498 121.66697 9841 ft 311 kts 97°
2026-05-05 04:40 38.86238 121.69451 9846 ft 309 kts 96°
2026-05-05 04:40 38.86005 121.72157 9841 ft 302 kts 96°
2026-05-05 04:40 38.85788 121.74829 9848 ft 300 kts 96°
2026-05-05 04:40 38.85579 121.77487 9858 ft 297 kts 96°
2026-05-05 04:41 38.85372 121.80106 9897 ft 289 kts 96°
2026-05-05 04:41 38.85171 121.82642 9712 ft 285 kts 95°
2026-05-05 04:41 38.84971 121.85181 9336 ft 285 kts 96°
2026-05-05 04:41 38.84771 121.87713 9007 ft 284 kts 96°
2026-05-05 04:42 38.84575 121.90236 8711 ft 281 kts 96°
2026-05-05 04:42 38.84387 121.92722 8426 ft 278 kts 96°
2026-05-05 04:42 38.84199 121.95187 8128 ft 276 kts 96°
2026-05-05 04:42 38.84013 121.97638 7850 ft 274 kts 96°
2026-05-05 04:43 38.83823 122.00112 7560 ft 273 kts 96°
2026-05-05 04:43 38.83672 122.02614 7246 ft 273 kts 86°
2026-05-05 04:43 38.84262 122.04891 6898 ft 270 kts 49°
2026-05-05 04:43 38.85722 122.06276 6597 ft 261 kts 11°
2026-05-05 04:44 38.87495 122.06568 6359 ft 256 kts 356°
2026-05-05 04:44 38.89272 122.06583 6074 ft 255 kts 356°
2026-05-05 04:44 38.91007 122.06332 5727 ft 248 kts 331°
2026-05-05 04:44 38.92305 122.05017 5435 ft 237 kts 298°
2026-05-05 04:45 38.92849 122.03077 5128 ft 229 kts 272°
2026-05-05 04:45 38.92972 122.01028 4866 ft 231 kts 270°
2026-05-05 04:45 38.93092 121.98967 4576 ft 231 kts 270°
2026-05-05 04:45 38.93229 121.96905 4297 ft 231 kts 271°
2026-05-05 04:46 38.93378 121.94853 4014 ft 230 kts 271°
2026-05-05 04:46 38.93536 121.92810 3747 ft 229 kts 271°
2026-05-05 04:46 38.93696 121.90782 3473 ft 228 kts 271°
2026-05-05 04:46 38.93855 121.88754 3204 ft 227 kts 270°
2026-05-05 04:47 38.94010 121.86733 2931 ft 226 kts 270°
2026-05-05 04:47 38.94170 121.84751 2823 ft 224 kts 271°
2026-05-05 04:47 38.94362 121.82751 2689 ft 225 kts 271°
2026-05-05 04:47 38.94544 121.80756 2458 ft 225 kts 270°
2026-05-05 04:48 38.94708 121.78745 2128 ft 227 kts 269°
2026-05-05 04:48 38.94861 121.76745 2000 ft 219 kts 268°
2026-05-05 04:48 38.95001 121.74840 1995 ft 210 kts 269°
2026-05-05 04:48 38.95136 121.72975 1987 ft 209 kts 268°
2026-05-05 04:49 38.95270 121.71117 1992 ft 208 kts 268°
2026-05-05 04:49 38.95406 121.69271 1992 ft 208 kts 268°
2026-05-05 04:49 38.95544 121.67413 1923 ft 209 kts 268°
2026-05-05 04:49 38.95684 121.65565 1671 ft 204 kts 268°
2026-05-05 04:50 38.95820 121.63778 1406 ft 195 kts 267°
2026-05-05 04:50 38.95947 121.62080 1147 ft 187 kts 268°
2026-05-05 04:50 38.96068 121.60458 873 ft 177 kts 269°
2026-05-05 04:50 38.96184 121.58936 636 ft 167 kts 270°
2026-05-05 04:51 38.96296 121.57459 405 ft 164 kts 271°
2026-05-05 04:51 38.96402 121.55987 229 ft 165 kts 272°
2026-05-05 04:51 38.96508 121.54548 124 ft 149 kts 275°
2026-05-05 04:51 38.96586 121.53469 120 ft 97 kts 275°
2026-05-05 04:52 38.96578 121.52868 120 ft 48 kts 249°
2026-05-05 04:52 38.96474 121.52676 122 ft 12 kts 157°
2026-05-05 04:52 38.96440 121.52793 120 ft 15 kts 98°
2026-05-05 04:52 38.96427 121.52935 120 ft 13 kts 109°
2026-05-05 04:53 38.96355 121.52966 121 ft 12 kts 174°
2026-05-05 04:53 38.96263 121.52968 122 ft 14 kts 181°
2026-05-05 04:53 38.96181 121.52988 120 ft 11 kts 131°
2026-05-05 04:53 38.96168 121.53026 120 ft 0 kts 86°
2026-05-05 04:54 38.96168 121.53030 120 ft 0 kts 94°
2026-05-05 04:54 38.96168 121.53031 120 ft 0 kts 94°